Weather History for Gulkana, AK

Change the Weather History Date:

Sunday, November 11, 2012

  Actual Average Record
Temperature  
Mean Temperature 19 °F -  
Max Temperature 24 °F 15 °F 45 °F (1979)
Min Temperature 14 °F 0 °F -39 °F (1989)
Degree Days  
Heating Degree Days 46    
Moisture  
Dew Point 18 °F    
Average Humidity 91    
Maximum Humidity 96    
Minimum Humidity 86    
Precipitation  
Precipitation 0.00 in - - ()
Snow  
Snow 0.00 in - - ()
Snow Depth 6.00 in    
Sea Level Pressure  
Sea Level Pressure 29.73 in    
Wind  
Wind Speed 0 mph (NW)    
Max Wind Speed 5 mph    
Max Gust Speed -    
Visibility 8 miles    
Events Fog , Snow    
Averages and records for this station are not official NWS values.
T = Trace of Precipitation, MM = Missing Value Source: NWS Daily Summary

Daily Weather History Graph

Daily Weather History Graph

Search for Another Location

Airport:

Trip Planner

Search our weather history database for the weather conditions in past years. The results will help you decide how hot, cold, wet, or windy it might be!

Date:

Astronomy

Nov. 11, 2012 Rise Set
Actual Time 8:45 AM AKST 4:05 PM AKST
Civil Twilight 7:52 AM AKST 4:58 PM AKST
Nautical Twilight 6:56 AM AKST 5:53 PM AKST
Astronomical Twilight 6:04 AM AKST 6:46 PM AKST
Moon 5:33 AM AKST (11/11) 3:04 PM AKST (11/11)
Length of Visible Light 9h 06m
Length of Day
7h 20m
Waning Crescent, 6% of the Moon is Illuminated
Nov 11
Waning Crescent
Nov 13
New
Nov 20
First Quarter
Nov 28
Full
Dec 6
Last Quarter

Hourly Weather History & Observations

Time (AKST) Temp. Windchill Dew Point Humidity Pressure Visibility Wind Dir Wind Speed Gust Speed Precip Events Conditions
12:44 AM 19.4 °F - 17.6 °F 93% 29.59 in 10.0 mi Calm Calm - N/A   Overcast
12:53 AM 19.9 °F - 17.1 °F 89% 29.71 in 10.0 mi Calm Calm - N/A   Overcast
1:53 AM 19.9 °F - 17.1 °F 89% 29.71 in 10.0 mi Calm Calm - N/A   Overcast
2:49 AM 19.4 °F - 17.6 °F 93% 29.59 in 10.0 mi Calm Calm - N/A   Overcast
3:53 AM 19.9 °F - 17.1 °F 89% 29.71 in 10.0 mi Calm Calm - N/A   Overcast
5:08 AM 19.4 °F - 17.6 °F 93% 29.59 in 2.5 mi Calm Calm - N/A   Overcast
5:42 AM 19.4 °F - 17.6 °F 93% 29.59 in 1.5 mi Calm Calm - N/A   Overcast
5:53 AM 19.9 °F - 19.0 °F 96% 29.71 in 1.5 mi Calm Calm - N/A   Overcast
5:59 AM 19.4 °F - 17.6 °F 93% 29.59 in 1.2 mi Calm Calm - N/A   Overcast
6:53 AM 19.9 °F - 19.0 °F 96% 29.71 in 1.5 mi Calm Calm - N/A   Overcast
7:53 AM 19.9 °F - 19.0 °F 96% 29.71 in 0.5 mi Calm Calm - N/A Fog Light Freezing Fog
8:30 AM 19.4 °F - 17.6 °F 93% 29.60 in 1.5 mi Calm Calm - N/A Fog Patches of Fog
8:53 AM 19.9 °F - 18.0 °F 92% 29.72 in 10.0 mi Calm Calm - N/A Fog Patches of Fog
9:07 AM 19.4 °F - 17.6 °F 93% 29.61 in 10.0 mi Calm Calm - N/A   Overcast
9:53 AM 19.9 °F 14.9 °F 19.0 °F 96% 29.73 in 10.0 mi NW 3.5 mph - N/A Fog Overcast
10:53 AM 21.9 °F - 19.9 °F 92% 29.74 in 10.0 mi Calm Calm - N/A Fog Overcast
11:20 AM 21.2 °F - 19.4 °F 93% 29.63 in 10.0 mi Calm Calm - N/A   Overcast
11:53 AM 21.9 °F - 19.9 °F 92% 29.75 in 10.0 mi Calm Calm - 0.00 in   Overcast
12:34 PM 23.0 °F - 19.4 °F 86% 29.64 in 10.0 mi Calm Calm - N/A   Mostly Cloudy
12:53 PM 23.0 °F - 19.9 °F 88% 29.75 in 10.0 mi Calm Calm - N/A   Mostly Cloudy
1:53 PM 23.0 °F - 21.0 °F 92% 29.76 in 10.0 mi Calm Calm - N/A   Overcast
2:20 PM 24.8 °F - 21.2 °F 86% 29.65 in 10.0 mi Calm Calm - 0.00 in Snow Light Snow
2:53 PM 24.1 °F - 21.9 °F 91% 29.77 in 5.0 mi Calm Calm - 0.00 in Snow Light Snow
3:53 PM 23.0 °F - 19.9 °F 88% 29.78 in 7.0 mi Calm Calm - 0.00 in Snow Light Snow
4:53 PM 21.9 °F - 19.9 °F 92% 29.79 in 5.0 mi Calm Calm - 0.00 in Snow Light Snow
5:53 PM 21.0 °F - 19.0 °F 92% 29.80 in 10.0 mi Calm Calm - 0.00 in   Overcast
6:53 PM 21.0 °F 16.2 °F 19.0 °F 92% 29.81 in 10.0 mi NW 3.5 mph - N/A   Overcast
7:53 PM 19.9 °F - 18.0 °F 92% 29.83 in 10.0 mi Calm Calm - N/A   Overcast
8:43 PM 19.4 °F - 17.6 °F 93% 29.72 in 10.0 mi Calm Calm - N/A   Overcast
8:53 PM 18.0 °F - 16.0 °F 92% 29.84 in 10.0 mi Calm Calm - N/A   Overcast
9:27 PM 17.6 °F - 15.8 °F 93% 29.74 in 10.0 mi Calm Calm - N/A   Overcast
9:53 PM 19.0 °F - 17.1 °F 92% 29.86 in 10.0 mi Calm Calm - N/A   Overcast
10:53 PM 21.0 °F 16.2 °F 18.0 °F 88% 29.87 in 10.0 mi NNW 3.5 mph - N/A   Overcast
11:41 PM 19.4 °F 12.8 °F 17.6 °F 93% 29.77 in 10.0 mi NW 4.6 mph - N/A   Overcast
11:53 PM 21.0 °F 16.2 °F 18.0 °F 88% 29.88 in 10.0 mi NW 3.5 mph - N/A   Overcast